Regional Weather Roundup
Issued by NWS

Home | Current Version | Previous Version | Graphics & Text | Print | Product List | Glossary On
Versions: 1 2 3 4 5 6 7 8 9 10 11 12 13 14 15 16 17 18 19 20 21 22 23 24 25 26 27 28 29 30 31 32 33 34 35 36 37 38 39 40 41 42 43 44 45 46 47 48 49 50
000
ASUS45 KCYS 272210
RWRWY

WYOMING REGIONAL WEATHER ROUNDUP
NATIONAL WEATHER SERVICE CHEYENNE WY
300 PM MST SAT DEC 27 2014

NOTE:  "FAIR" INDICATES FEW OR NO CLOUDS BELOW 12,000 FEET
WITH NO SIGNIFICANT WEATHER AND/OR OBSTRUCTIONS TO VISIBILITY.

WYZ001-272300-
YELLOWSTONE NATIONAL PARK

CITY           SKY/WX    TMP DP  RH WIND       PRES   REMARKS
LK YELLOWSTONE   N/A     11   5  77 VRB5      30.04S WCI   3
W YELLOWSTONE  NOT AVBL

$$
WYZ002>013-054>058-071-098>099-272300-
NORTHERN WYOMING

CITY           SKY/WX    TMP DP  RH WIND       PRES   REMARKS
JACKSON        CLOUDY    18  12  79 S15       30.11F WCI   3
CODY           FAIR      21  10  63 N5        29.97S WCI  15
GREYBULL       FAIR      10   6  84 W3        30.09S
WORLAND        FAIR       5   2  87 CALM      30.06R
SHERIDAN       CLOUDY    21  10  62 S6        30.01R WCI  13
BUFFALO        CLOUDY    24   7  48 SE5       29.99R WCI  18
GILLETTE       FAIR      22  11  62 SW7       30.00R WCI  13
HULETT           N/A    N/A N/A N/A MISG        N/A
NEWCASTLE      FAIR      23  10  58 CALM      30.03R

$$
WYZ014>020-022>026-101>103-272300-
CENTRAL WYOMING

CITY           SKY/WX    TMP DP  RH WIND       PRES   REMARKS
BIG PINEY      FAIR       8   1  73 CALM      30.11S
PINEDALE       FAIR      14   5  67 NW14      30.09R WCI  -1
DUBOIS         NOT AVBL
LANDER         FAIR      15   4  61 W8        29.98S WCI   4
RIVERTON       FAIR       9   4  80 NE6       30.00S WCI  -1
CASPER         CLOUDY    20   9  62 SW21      30.01F WCI   4
DOUGLAS        FAIR      22  10  60 W15       30.02R WCI   9

$$
WYZ021-027>030-104>119-272300-
SOUTHERN WYOMING

CITY           SKY/WX    TMP DP  RH WIND       PRES   REMARKS
EVANSTON       FAIR      17   9  70 SW17      30.14F WCI   1
FORT BRIDGER   FAIR      20  10  64 W16G23    30.16S WCI   6
ROCK SPRINGS   PTSUNNY   16   8  71 W30G37    30.08F WCI  -4
DIXON          FAIR      17   7  65 S9        30.19F WCI   5
RAWLINS        PTSUNNY   15   6  67 SW15G26   30.06F WCI   0
SARATOGA       FAIR      18   3  53 S9        30.09S WCI   6
LARAMIE        FAIR      16   4  59 SW20      29.97S WCI  -1
CHEYENNE       FAIR      20   5  52 SW10      30.00F WCI   9
TORRINGTON     FAIR      24  12  60 W12       30.05S WCI  13
PINE BLUFFS    FAIR      21  10  63 S6        30.05F WCI  14

$$



USA.gov is the U.S. government's official web portal to all federal, state and local government web resources and services.